Weather History for Columbus AFB, MS

Change the Weather History Date:

Sunday, April 7, 2013

  Actual Average Record
Temperature  
Mean Temperature 60 °F -  
Max Temperature 74 °F 70 °F 84 °F (1999)
Min Temperature 45 °F 49 °F 33 °F (2009)
Degree Days  
Heating Degree Days 6    
Growing Degree Days 10 (Base 50)    
Moisture  
Dew Point 49 °F    
Average Humidity 68    
Maximum Humidity 99    
Minimum Humidity 42    
Precipitation  
Precipitation 0.00 in - - ()
Sea Level Pressure  
Sea Level Pressure 30.07 in    
Wind  
Wind Speed 6 mph (South)    
Max Wind Speed 14 mph    
Max Gust Speed 20 mph    
Visibility 10 miles    
Events      
Averages and records for this station are not official NWS values.
T = Trace of Precipitation, MM = Missing Value Source: NWS Daily Summary

Daily Weather History Graph

Daily Weather History Graph

Search for Another Location

Airport:

Trip Planner

Search our weather history database for the weather conditions in past years. The results will help you decide how hot, cold, wet, or windy it might be!

Date:

Astronomy

Apr. 07, 2013 Rise Set
Actual Time 6:33 AM CDT 7:19 PM CDT
Civil Twilight 6:07 AM CDT 7:44 PM CDT
Nautical Twilight 5:38 AM CDT 8:14 PM CDT
Astronomical Twilight 5:07 AM CDT 8:44 PM CDT
Moon 4:43 AM CDT (4/7) 4:56 PM CDT (4/7)
Length of Visible Light 13h 36m
Length of Day
12h 45m
Waning Crescent, 8% of the Moon is Illuminated
Apr 7
Waning Crescent
Apr 10
New
Apr 18
First Quarter
Apr 25
Full
May 2
Last Quarter

Hourly Weather History & Observations

Time (CDT) Temp. Windchill Dew Point Humidity Pressure Visibility Wind Dir Wind Speed Gust Speed Precip Events Conditions
12:58 AM 56.5 °F - 44.6 °F 64% 30.08 in 10.0 mi South 5.8 mph - N/A   Clear
1:58 AM 52.2 °F - 44.4 °F 75% 30.08 in 10.0 mi SSE 2.3 mph - N/A   Clear
2:58 AM 50.7 °F - 44.8 °F 80% 30.07 in 10.0 mi South 1.2 mph - N/A   Clear
3:58 AM 48.7 °F - 45.7 °F 89% 30.07 in 10.0 mi SSE 1.2 mph - N/A   Clear
4:58 AM 47.1 °F - 46.4 °F 97% 30.08 in 10.0 mi ESE 3.5 mph - N/A   Clear
5:58 AM 45.1 °F - 44.8 °F 99% 30.10 in 10.0 mi SE 2.3 mph - N/A   Clear
6:58 AM 46.0 °F 41.9 °F 45.9 °F 99% 30.11 in 10.0 mi SE 8.1 mph - N/A   Clear
7:58 AM 52.9 °F - 50.5 °F 92% 30.13 in 10.0 mi SE 3.5 mph - N/A   Clear
8:58 AM 58.6 °F - 51.3 °F 76% 30.13 in 10.0 mi South 4.6 mph - N/A   Clear
9:58 AM 63.3 °F - 52.2 °F 67% 30.13 in 10.0 mi SSW 8.1 mph - N/A   Partly Cloudy
10:58 AM 66.9 °F - 53.2 °F 61% 30.13 in 10.0 mi SSW 8.1 mph - N/A   Mostly Cloudy
11:18 AM 68.0 °F - 53.6 °F 60% 30.12 in 10.0 mi SSW 8.1 mph - N/A   Mostly Cloudy
11:28 AM 68.0 °F - 51.8 °F 56% 30.11 in 10.0 mi SW 8.1 mph - N/A   Mostly Cloudy
11:58 AM 70.2 °F - 52.2 °F 53% 30.11 in 10.0 mi SW 11.5 mph - N/A   Partly Cloudy
12:58 PM 70.9 °F - 50.5 °F 48% 30.10 in 10.0 mi SW 11.5 mph 19.6 mph N/A   Scattered Clouds
1:58 PM 72.3 °F - 51.3 °F 47% 30.07 in 10.0 mi South 8.1 mph 18.4 mph N/A   Scattered Clouds
2:58 PM 73.4 °F - 50.2 °F 44% 30.05 in 10.0 mi South 13.8 mph 19.6 mph N/A   Scattered Clouds
3:58 PM 74.3 °F - 50.0 °F 42% 30.03 in 10.0 mi South 8.1 mph 17.3 mph N/A   Partly Cloudy
4:58 PM 73.8 °F - 49.5 °F 42% 30.03 in 10.0 mi SSW 8.1 mph 17.3 mph N/A   Scattered Clouds
5:58 PM 72.9 °F - 49.3 °F 43% 30.01 in 10.0 mi South 6.9 mph - N/A   Clear
6:58 PM 70.3 °F - 50.4 °F 49% 30.00 in 10.0 mi South 4.6 mph - N/A   Clear
7:58 PM 64.4 °F - 50.5 °F 61% 30.00 in 10.0 mi South 5.8 mph - N/A   Clear
8:58 PM 60.3 °F - 50.7 °F 71% 30.01 in 10.0 mi South 4.6 mph - N/A   Clear
9:58 PM 56.5 °F - 50.7 °F 81% 30.01 in 10.0 mi SSE 6.9 mph - N/A   Clear
10:58 PM 58.1 °F - 50.9 °F 77% 30.01 in 10.0 mi SE 5.8 mph - N/A   Clear
11:58 PM 54.7 °F - 50.0 °F 84% 30.01 in 10.0 mi SSE 2.3 mph - N/A   Clear